Date,TemperatureHighF,TemperatureAvgF,TemperatureLowF,DewpointHighF,DewpointAvgF,DewpointLowF,HumidityHigh,HumidityAvg,HumidityLow,PressureMaxIn,PressureMinIn,WindSpeedMaxMPH,WindSpeedAvgMPH,GustSpeedMaxMPH,PrecipitationSumIn
2014-1-1,54.6,48.0,40.4,52.2,46.0,37.8,98,92,86,30.30,30.01,1,0,4,0.07
2014-1-2,55.6,47.0,32.4,55.4,40.4,23.6,100,79,53,30.35,29.94,10,3,22,0.10
2014-1-3,43.3,32.7,25.6,24.1,19.4,15.1,79,60,35,30.45,30.27,7,1,13,0.00
2014-1-4,56.3,41.4,25.8,47.3,33.8,18.2,97,75,60,30.27,30.01,3,0,11,0.00
2014-1-5,64.8,49.4,29.6,59.4,46.8,24.8,100,91,77,30.19,29.78,12,2,19,0.14
2014-1-6,29.6,24.4,18.8,24.7,11.5,2.7,82,59,35,30.60,30.19,10,4,22,0.00
2014-1-7,34.4,23.2,14.1,16.5,10.2,3.6,87,60,35,30.67,30.48,3,0,8,0.00
2014-1-8,48.9,33.4,19.5,28.9,20.1,12.1,84,60,33,30.50,30.32,3,0,10,0.00
2014-1-9,64.0,48.3,36.8,48.9,36.3,23.9,90,64,45,30.33,30.18,3,0,10,0.00
2014-1-10,64.8,54.2,43.1,64.5,52.9,41.8,99,96,88,30.18,29.79,5,0,13,0.14
2014-1-11,66.4,60.5,43.5,66.1,47.1,31.2,99,66,28,30.07,29.76,8,2,19,1.08
2014-1-12,65.4,51.3,35.7,43.0,34.7,-99.9,89,56,33,30.19,29.99,4,0,11,0.00
2014-1-13,61.9,55.6,49.0,61.6,53.2,41.5,100,92,73,30.04,29.80,3,0,11,0.50
2014-1-14,63.9,50.5,40.7,41.5,36.8,32.6,83,62,34,30.08,29.97,3,0,10,0.00
2014-1-15,49.5,42.6,29.0,37.3,26.7,17.4,90,57,30,30.24,30.06,8,2,17,0.00
2014-1-16,59.4,43.1,27.7,40.5,29.8,21.6,87,62,34,30.19,30.01,7,1,23,0.00
2014-1-17,52.6,44.1,32.7,41.0,27.4,15.0,91,57,25,30.24,30.05,7,1,20,0.00
2014-1-18,59.0,43.0,26.2,32.3,23.0,16.2,85,48,27,30.28,30.08,4,1,12,0.00
2014-1-19,62.0,48.8,40.1,43.4,34.3,28.1,97,61,30,30.23,30.06,4,0,11,0.00
2014-1-20,66.7,50.6,34.9,48.3,36.8,28.2,88,62,34,30.11,29.93,2,0,9,0.00
2014-1-21,58.2,46.3,29.3,56.5,29.2,14.4,95,54,26,30.21,29.92,11,3,21,0.00
2014-1-22,53.8,37.7,23.3,29.5,22.0,16.4,79,56,32,30.24,30.12,2,0,8,0.00
2014-1-23,46.4,37.1,25.2,29.5,25.5,20.4,92,65,43,30.62,30.18,9,2,16,0.00
2014-1-24,28.5,26.0,23.1,23.0,17.1,11.8,92,69,54,30.62,30.31,4,1,10,0.00
2014-1-25,55.2,37.0,21.8,33.2,26.0,18.9,95,69,38,30.31,30.01,5,1,11,0.02
2014-1-26,58.8,47.3,35.1,48.1,38.6,32.3,94,74,47,30.04,29.84,2,0,11,0.00
2014-1-27,56.3,48.9,33.9,55.6,39.3,13.5,98,72,38,30.14,29.83,6,2,16,0.04
2014-1-28,33.9,24.7,20.2,21.4,16.4,8.6,92,73,41,30.39,30.11,7,3,16,0.00
2014-1-29,30.9,23.0,18.0,13.8,8.4,5.4,80,54,37,30.50,30.34,5,1,11,0.01
2014-1-30,49.2,32.5,15.9,30.4,18.4,9.5,90,60,30,30.34,30.09,3,0,9,0.05
2014-1-31,60.6,46.7,31.4,49.0,41.2,29.1,95,82,64,30.16,30.02,3,0,9,0.00
2014-2-1,69.2,57.7,45.5,61.2,53.9,44.4,97,88,70,30.03,29.95,1,0,8,0.00
2014-2-2,68.6,60.0,38.1,68.2,59.4,37.3,99,98,87,30.00,29.81,7,1,17,0.78
2014-2-3,39.7,37.3,34.3,39.2,36.4,33.4,98,97,94,30.17,30.00,8,2,15,0.10
2014-2-4,66.5,48.2,38.9,66.5,47.8,38.4,100,99,98,30.09,29.74,8,1,28,1.42
2014-2-5,42.9,38.0,29.5,42.4,34.3,24.7,98,87,73,30.35,29.97,7,3,16,0.01
2014-2-6,36.6,30.7,27.8,29.1,25.7,24.0,89,82,73,30.46,30.30,7,2,14,0.00
2014-2-7,50.2,37.4,24.8,38.9,30.8,23.1,100,78,57,30.37,30.17,4,1,11,0.00
2014-2-8,60.2,45.6,33.4,47.6,40.2,32.0,96,82,62,30.26,30.09,2,0,10,0.00
2014-2-9,68.0,54.6,43.2,53.8,49.8,41.8,98,85,57,30.17,30.01,3,0,8,0.00
2014-2-10,53.5,45.0,38.5,52.4,44.0,37.6,98,96,92,30.13,30.03,3,1,10,0.66
2014-2-11,38.4,34.7,32.7,37.6,33.8,31.8,97,97,95,30.17,30.00,7,3,20,1.84
2014-2-12,35.3,33.2,30.9,34.8,32.1,-99.9,98,97,97,30.04,29.91,6,2,11,0.30
2014-2-13,53.8,40.5,29.3,39.7,33.9,28.6,98,79,51,30.07,29.96,4,0,13,0.00
2014-2-14,61.9,50.6,33.0,55.2,44.6,31.7,97,81,49,29.98,29.79,7,2,16,0.00
2014-2-15,61.6,46.7,35.2,36.4,31.8,28.3,83,59,29,30.21,29.96,4,1,13,0.00
2014-2-16,70.1,54.8,37.0,55.1,46.5,34.1,97,75,52,30.16,30.05,2,0,9,0.00
2014-2-17,73.0,63.8,53.3,62.9,58.9,51.9,100,85,67,30.09,30.00,3,0,15,0.00
2014-2-18,73.3,65.7,60.4,64.5,61.5,58.9,99,87,65,30.12,29.99,2,0,13,0.00
2014-2-19,77.0,67.4,60.3,64.1,62.0,57.6,98,84,54,30.04,29.90,4,0,16,0.00
2014-2-20,79.3,68.6,56.8,66.9,63.5,55.1,98,85,55,29.91,29.76,9,2,28,5.02
2014-2-21,63.2,51.8,41.3,56.0,36.0,27.6,94,59,28,30.11,29.89,0,0,0,0.03
2014-2-22,62.4,52.8,41.7,43.0,37.4,32.1,83,57,38,30.14,29.98,0,0,0,0.00
2014-2-23,66.1,58.7,52.8,62.8,56.4,40.7,98,92,63,30.01,29.91,0,0,1,0.15
2014-2-24,70.1,61.0,52.4,60.3,53.8,45.8,99,78,56,30.14,29.99,0,0,1,0.01
2014-2-25,65.8,59.5,53.4,58.4,55.2,52.3,97,86,71,30.07,29.90,6,0,8,0.59
2014-2-26,53.3,41.3,32.5,52.4,36.3,25.5,97,83,65,30.09,29.86,8,4,19,0.50
2014-2-27,52.8,37.9,26.5,28.7,23.5,18.1,85,59,31,30.15,30.00,6,1,13,0.00
2014-2-28,60.9,47.9,32.3,46.6,34.1,23.2,82,60,38,30.07,29.94,3,1,15,0.00
2014-3-1,76.3,63.0,50.0,63.4,56.5,46.1,95,80,60,30.13,30.01,3,0,15,0.00
2014-3-2,74.7,65.9,59.5,65.3,62.1,58.1,96,88,71,30.12,29.88,4,1,14,0.00
2014-3-3,65.2,34.7,25.5,63.7,32.0,22.0,97,90,81,30.24,29.86,9,4,18,0.38
2014-3-4,32.3,29.5,25.7,31.5,27.8,22.6,97,93,88,30.23,30.08,4,0,16,0.02
2014-3-5,52.6,41.6,32.3,48.3,40.3,31.5,99,95,85,30.12,29.98,2,0,7,0.05
2014-3-6,47.5,43.2,39.6,46.7,42.5,39.1,98,97,96,30.04,29.95,5,1,12,0.20
2014-3-7,59.5,47.0,39.6,49.8,43.6,39.1,98,89,63,30.10,29.98,2,0,7,0.00
2014-3-8,67.2,54.6,42.3,54.3,48.9,41.5,99,83,58,30.17,30.02,3,0,9,0.00
2014-3-9,70.3,60.8,51.0,57.0,53.3,50.2,98,78,55,30.22,30.09,1,0,5,0.00
2014-3-10,76.2,62.3,48.2,59.0,54.3,47.1,98,77,53,30.15,29.92,4,0,8,0.00
2014-3-11,65.2,61.7,56.8,64.3,60.2,54.9,99,95,79,29.92,29.65,1,0,7,0.16
2014-3-12,62.1,57.0,45.0,61.8,48.1,32.3,99,75,43,30.15,29.67,14,3,21,0.00
2014-3-13,64.9,49.3,32.8,39.0,33.0,29.3,95,58,29,30.30,30.14,6,0,10,0.00
2014-3-14,67.4,53.8,37.0,51.8,43.7,35.3,96,71,46,30.23,30.07,4,0,12,0.00
2014-3-15,68.3,60.2,51.9,60.2,56.2,50.5,97,87,71,30.09,29.76,2,0,10,0.02
2014-3-16,74.3,64.9,48.5,65.3,58.8,43.6,99,82,55,29.77,29.56,9,2,22,1.56
2014-3-17,48.4,39.7,37.5,43.0,35.9,34.4,92,86,81,29.88,29.74,6,2,17,0.00
2014-3-18,65.7,48.9,37.3,47.9,41.4,34.9,93,77,47,29.96,29.82,5,0,14,0.00
2014-3-19,72.4,59.8,47.1,60.0,54.5,45.9,98,84,61,30.07,29.93,3,0,11,0.00
2014-3-20,71.6,59.8,49.7,57.0,43.9,38.1,86,58,31,30.15,30.03,5,1,13,0.00
2014-3-21,75.8,61.1,44.7,53.9,47.1,39.1,85,63,36,30.07,29.93,5,0,13,0.00
2014-3-22,78.4,66.3,55.3,63.6,58.5,53.0,94,77,54,30.04,29.92,2,0,8,0.00
2014-3-23,66.6,55.5,48.5,63.5,52.0,44.4,97,88,76,30.16,29.92,7,2,15,0.43
2014-3-24,63.9,53.5,46.0,46.8,42.7,39.2,93,69,45,30.17,29.95,4,1,9,0.00
2014-3-25,58.9,50.5,40.7,39.9,30.8,25.0,75,49,28,30.26,30.05,10,3,20,0.00
2014-3-26,57.1,47.3,34.6,36.9,30.5,26.2,84,54,34,30.36,30.15,4,0,11,0.00
2014-3-27,66.6,58.8,47.5,61.5,53.2,37.1,97,82,65,30.16,29.90,5,1,16,0.02
2014-3-28,72.0,63.9,59.4,67.9,62.6,57.9,99,96,87,29.96,29.78,11,1,13,3.36
2014-3-29,67.7,59.6,51.6,58.5,51.3,42.5,99,77,41,30.20,29.83,12,2,20,0.14
2014-3-30,70.7,55.5,43.6,45.7,41.5,38.2,93,63,32,30.26,30.11,5,0,10,0.00
2014-3-31,75.5,58.9,43.3,54.3,45.3,37.9,90,65,26,30.12,30.00,6,1,15,0.00
2014-4-1,77.3,66.4,56.5,63.5,60.0,54.2,97,81,55,30.10,29.99,3,0,11,0.00
2014-4-2,80.1,68.7,62.1,68.5,64.3,60.7,96,87,61,30.04,29.94,3,1,13,0.00
2014-4-3,79.3,73.6,67.3,68.2,66.7,65.0,96,80,64,29.97,29.84,6,2,20,0.00
2014-4-4,74.2,66.5,59.0,67.9,62.1,52.2,96,86,63,30.01,29.80,3,1,12,0.81
2014-4-5,69.0,60.5,54.0,54.3,47.6,42.8,92,64,41,30.07,29.92,6,2,12,0.02
2014-4-6,71.1,58.8,50.6,70.3,57.9,49.5,99,97,91,29.96,29.57,6,1,15,0.29
2014-4-7,71.1,60.1,52.4,70.4,54.7,50.4,99,83,63,29.90,29.57,6,2,15,1.04
2014-4-8,63.8,51.3,46.6,54.1,48.3,44.2,100,90,58,30.06,29.78,13,1,20,0.12
2014-4-9,69.3,55.0,42.8,46.7,42.7,38.8,96,68,35,30.23,30.06,5,1,11,0.00
2014-4-10,74.5,60.3,44.1,52.6,47.4,40.9,95,66,36,30.21,30.08,4,1,12,0.00
2014-4-11,76.2,63.0,50.3,61.6,55.9,48.9,97,80,52,30.18,30.03,3,0,11,0.00
2014-4-12,78.5,69.7,60.8,64.7,62.1,58.0,98,78,56,30.12,29.97,3,1,13,0.00
2014-4-13,79.5,70.1,62.5,68.1,63.7,60.2,95,81,56,30.00,29.81,6,1,16,0.00
2014-4-14,73.5,63.9,47.4,70.7,62.2,46.0,98,94,80,29.94,29.67,10,2,17,2.09
2014-4-15,54.2,46.4,39.3,46.0,35.5,27.8,96,69,39,30.20,29.93,11,4,20,0.00
2014-4-16,63.6,48.7,34.4,43.2,35.9,31.5,92,64,36,30.26,30.08,2,0,12,0.00
2014-4-17,63.7,55.3,43.2,58.2,51.1,41.3,95,86,75,30.20,30.11,3,0,9,0.00
2014-4-18,72.2,63.1,56.1,60.6,57.0,53.5,95,81,60,30.15,30.03,6,1,11,0.00
2014-4-19,76.2,64.2,50.8,55.0,52.7,49.2,96,69,44,30.16,30.05,5,1,14,0.00
2014-4-20,80.8,67.3,55.7,60.3,54.1,50.9,86,65,39,30.18,30.04,4,0,8,0.00
2014-4-21,78.7,68.1,60.2,62.4,60.3,56.0,97,78,52,30.11,29.94,1,0,9,0.00
2014-4-22,75.0,65.7,59.5,66.0,62.3,58.6,98,90,69,29.97,29.85,5,0,11,0.01
2014-4-23,82.5,69.5,60.3,61.5,55.5,47.9,97,66,32,29.96,29.84,3,0,9,0.00
2014-4-24,81.2,70.4,59.0,67.6,63.5,56.2,98,80,58,29.94,29.79,3,0,12,0.00
2014-4-25,83.0,72.4,64.8,66.5,58.9,51.0,98,67,35,29.97,29.86,5,0,14,0.00
2014-4-26,83.7,71.8,58.7,69.9,61.5,50.3,93,71,54,29.94,29.83,3,0,10,0.00
2014-4-27,83.7,75.5,69.6,73.5,70.5,67.7,96,85,61,29.87,29.65,7,2,20,0.00
2014-4-28,82.8,75.5,71.5,74.2,71.5,69.2,95,88,73,29.75,29.52,6,2,20,0.00
2014-4-29,81.0,72.0,62.2,73.3,67.3,58.5,98,86,71,29.77,29.60,3,0,10,0.02
2014-4-30,68.2,60.8,53.0,58.2,50.7,46.3,87,71,50,30.08,29.77,5,1,11,0.00
2014-5-1,69.3,58.0,45.0,50.7,44.7,38.4,93,64,38,30.11,29.97,4,0,11,0.00
2014-5-2,73.1,62.7,53.2,51.7,46.1,40.6,91,58,32,30.02,29.92,4,0,10,0.00
2014-5-3,81.0,65.7,50.1,55.2,49.5,44.1,88,61,30,30.07,29.98,5,0,11,0.00
2014-5-4,85.7,70.9,56.6,60.3,56.9,53.2,98,65,35,30.12,29.99,2,0,10,0.00
2014-5-5,83.5,70.6,56.0,58.3,55.2,52.0,93,62,36,30.05,29.91,3,0,13,0.00
2014-5-6,81.4,68.8,54.9,63.7,59.9,53.5,98,75,52,29.99,29.87,2,0,13,0.00
2014-5-7,82.7,72.1,61.5,68.0,64.3,60.1,97,78,53,30.02,29.91,4,0,13,0.00
2014-5-8,83.4,75.1,68.2,70.7,67.3,61.3,96,79,49,30.06,29.95,4,1,13,0.00
2014-5-9,73.5,67.3,63.1,72.0,65.9,62.3,99,96,85,30.08,29.91,6,1,18,2.83
2014-5-10,82.0,71.0,61.5,72.9,67.4,60.9,99,89,71,30.00,29.90,3,0,11,0.00
2014-5-11,85.4,74.0,70.3,73.1,71.2,69.4,98,92,63,30.00,29.91,9,1,16,1.68
2014-5-12,84.5,76.3,71.3,73.3,71.4,68.9,99,86,62,30.04,29.92,4,1,14,0.01
2014-5-13,85.0,75.6,70.1,71.7,68.9,64.2,98,82,52,30.04,29.93,2,0,8,0.00
2014-5-14,77.3,65.7,53.7,70.3,62.9,51.6,98,91,76,30.08,29.92,9,2,20,0.00
2014-5-15,68.6,56.7,45.9,51.6,46.8,43.8,95,72,43,30.20,30.08,7,2,17,0.00
2014-5-16,77.3,64.4,49.5,61.7,55.2,46.7,96,74,52,30.18,30.02,4,1,14,0.00
2014-5-17,80.8,68.4,55.2,63.7,58.9,54.1,98,74,49,30.13,30.03,3,0,19,0.00
2014-5-18,82.1,69.5,57.0,63.8,59.6,55.3,97,73,45,30.16,30.06,1,0,6,0.00
2014-5-19,83.9,71.2,57.3,67.0,60.4,52.9,98,73,36,30.14,30.06,3,0,18,0.00
2014-5-20,84.8,73.7,64.1,68.0,64.6,60.5,99,76,46,30.15,30.07,4,0,16,0.00
2014-5-21,85.7,75.5,67.5,69.4,66.9,62.5,98,77,47,30.16,30.07,2,0,10,0.00
2014-5-22,85.3,74.2,64.1,70.0,66.3,62.9,98,78,52,30.17,30.03,2,0,7,0.00
2014-5-23,85.9,75.0,64.5,70.0,66.5,63.1,97,77,52,30.12,29.99,1,0,6,0.00
2014-5-24,81.4,72.8,65.3,70.5,67.2,63.5,96,83,63,30.09,29.99,1,0,5,0.00
2014-5-25,86.8,75.4,63.9,69.6,66.5,63.0,99,76,48,30.08,29.98,2,0,8,0.00
2014-5-26,85.0,75.1,64.8,71.1,67.2,63.9,99,78,53,30.11,30.01,3,0,10,0.00
2014-5-27,83.9,73.0,68.1,71.9,69.5,66.6,98,89,60,30.05,29.90,5,0,12,0.54
2014-5-28,71.3,68.4,65.4,71.0,67.8,64.8,99,98,96,29.93,29.82,4,0,11,2.36
2014-5-29,79.9,71.8,68.3,74.3,70.1,67.7,100,95,79,29.85,29.77,2,0,12,0.55
2014-5-30,78.9,72.8,69.7,74.4,71.4,69.1,99,95,81,29.91,29.81,5,0,17,0.60
2014-5-31,74.8,71.5,69.1,73.0,70.4,68.5,98,96,90,29.97,29.88,3,0,10,0.38
2014-6-1,81.1,71.8,67.7,74.3,70.3,67.4,99,95,80,30.02,29.94,7,0,14,0.49
2014-6-2,81.9,74.0,71.0,75.3,72.3,70.2,99,95,77,30.04,29.98,3,0,10,1.08
2014-6-3,82.3,73.8,69.8,75.1,71.6,69.5,99,93,73,30.04,29.95,2,0,10,0.17
2014-6-4,86.6,76.2,70.3,74.6,71.9,70.0,99,88,61,29.95,29.84,1,0,7,0.01
2014-6-5,86.3,77.8,70.9,77.1,73.6,70.3,99,88,67,29.90,29.83,2,0,7,0.00
2014-6-6,89.2,80.1,71.5,76.8,73.9,70.9,99,83,59,29.94,29.85,3,0,9,0.00
2014-6-7,90.1,81.0,73.2,78.3,75.1,72.2,98,84,63,29.96,29.85,2,0,7,0.00
2014-6-8,89.8,80.9,73.3,77.3,74.2,71.9,98,82,57,29.95,29.80,2,0,8,0.00
2014-6-9,89.1,78.1,69.0,75.9,72.6,68.0,98,84,58,29.87,29.76,7,1,20,0.05
2014-6-10,79.0,72.0,66.8,74.7,70.8,66.2,99,96,85,29.89,29.71,8,0,13,1.21
2014-6-11,84.5,74.9,65.7,70.1,67.7,64.6,99,80,54,29.86,29.78,5,1,15,0.01
2014-6-12,86.3,75.9,66.7,74.6,70.4,65.5,98,84,59,29.92,29.82,2,0,10,0.00
2014-6-13,80.2,72.8,65.5,74.3,69.8,-99.9,99,92,80,29.95,29.84,9,0,17,1.47
2014-6-14,87.7,76.9,66.1,73.9,69.8,65.5,99,80,57,29.97,29.87,1,0,5,0.00
2014-6-15,87.0,77.1,67.9,75.5,71.5,67.0,98,84,63,30.01,29.89,2,0,8,0.00
2014-6-16,86.0,76.6,70.0,77.8,73.3,69.4,99,90,67,30.11,30.00,2,0,8,0.42
2014-6-17,89.5,78.5,71.2,76.5,72.6,70.6,99,84,56,30.10,29.99,3,0,11,0.00
2014-6-18,89.5,79.3,69.7,75.4,72.3,69.1,99,81,57,30.06,29.97,2,0,7,0.00
2014-6-19,91.0,82.1,71.6,76.7,72.9,69.9,98,75,53,30.08,29.99,1,0,5,0.00
2014-6-20,88.3,78.2,71.7,77.1,73.4,70.6,97,86,62,30.05,29.95,2,0,6,0.00
2014-6-21,88.6,77.6,71.9,77.2,73.3,70.5,98,88,62,30.00,29.86,7,0,9,0.15
2014-6-22,86.7,75.6,71.9,77.4,73.1,70.8,98,92,68,29.93,29.85,3,0,10,0.98
2014-6-23,86.8,76.6,71.8,78.5,73.5,70.7,99,91,68,29.97,29.86,2,0,8,0.08
2014-6-24,87.0,75.5,70.2,76.8,72.6,68.8,98,91,67,30.04,29.94,9,0,13,0.37
2014-6-25,85.5,74.4,69.4,75.9,71.1,68.4,99,90,67,30.08,29.97,6,0,14,0.66
2014-6-26,83.4,72.7,68.5,76.8,71.0,68.2,99,95,77,30.06,29.93,2,0,7,0.71
2014-6-27,80.9,73.5,69.3,76.1,71.5,68.7,99,94,81,30.05,29.94,5,0,18,0.15
2014-6-28,88.3,76.1,68.6,79.4,73.3,68.3,99,92,70,30.07,29.98,4,0,14,0.03
2014-6-29,89.7,81.1,74.4,77.9,75.9,73.8,99,85,63,30.11,30.00,2,0,9,0.01
2014-6-30,90.1,81.5,74.4,78.7,75.7,73.5,99,84,61,30.04,29.92,2,0,10,0.00
2014-7-1,90.5,80.8,73.1,78.5,75.1,72.5,98,84,61,30.00,29.87,2,0,9,0.00
2014-7-2,91.5,80.4,70.8,79.1,74.9,69.6,97,85,59,30.04,29.89,5,0,12,0.17
2014-7-3,88.8,78.5,68.5,75.4,71.7,67.9,98,81,57,30.07,29.93,3,0,10,0.01
2014-7-4,84.8,76.0,67.3,70.7,65.7,62.2,89,72,51,30.15,30.06,3,1,11,0.00
2014-7-5,85.5,75.6,64.7,69.9,64.8,59.4,93,71,46,30.13,30.03,2,0,6,0.00
2014-7-6,88.7,77.4,64.3,72.9,67.0,62.6,95,73,48,30.06,29.93,2,0,8,0.00
2014-7-7,89.6,79.4,68.8,73.4,70.2,67.2,96,76,50,30.02,29.92,2,0,8,0.00
2014-7-8,88.2,77.2,70.9,77.4,72.6,68.9,98,86,62,30.04,29.93,3,0,8,0.01
2014-7-9,86.8,76.1,69.2,76.5,71.8,68.0,96,87,63,30.06,29.94,4,0,12,0.00
2014-7-10,90.7,78.2,71.1,79.0,73.1,70.2,97,86,59,30.07,29.94,3,0,8,0.13
2014-7-11,90.5,76.8,69.9,77.1,73.1,69.3,99,89,61,30.10,30.01,5,0,12,0.12
2014-7-12,87.7,78.5,70.4,78.6,73.8,69.8,98,87,64,30.10,30.00,3,0,8,0.00
2014-7-13,90.4,78.2,71.6,77.2,73.6,70.4,99,87,60,30.04,29.94,2,0,7,0.06
2014-7-14,89.5,78.6,70.2,77.5,73.9,69.5,99,87,63,30.00,29.87,3,0,10,0.00
2014-7-15,83.4,77.5,72.7,75.3,73.6,71.5,98,88,70,29.93,29.83,5,1,13,0.04
2014-7-16,81.8,73.9,66.9,71.5,63.8,58.5,94,72,46,29.96,29.88,4,1,11,0.00
2014-7-17,83.6,73.8,63.5,70.8,64.7,60.1,90,74,52,29.98,29.90,1,0,7,0.00
2014-7-18,77.2,73.3,69.9,74.2,71.5,68.5,99,94,84,29.95,29.84,3,0,8,2.02
2014-7-19,79.7,74.4,72.4,76.4,73.7,72.1,99,98,88,29.96,29.88,0,0,5,1.00
2014-7-20,84.0,76.1,71.3,77.9,73.5,71.0,99,92,75,29.99,29.90,1,0,5,0.00
2014-7-21,86.5,77.6,69.3,75.0,71.4,68.3,97,82,60,30.01,29.92,3,0,7,0.00
2014-7-22,86.0,76.7,69.7,76.2,72.1,68.7,98,87,68,29.99,29.93,3,0,10,0.06
2014-7-23,88.7,77.1,66.8,76.6,71.4,66.5,99,84,58,30.02,29.88,2,0,10,0.00
2014-7-24,88.7,78.5,71.1,76.4,73.6,70.5,99,86,62,29.96,29.87,2,0,7,0.00
2014-7-25,90.3,80.4,72.1,78.4,74.9,71.5,99,85,59,29.99,29.90,2,0,9,0.00
2014-7-26,91.0,82.0,74.3,79.2,76.6,73.7,98,85,61,30.02,29.93,2,0,8,0.00
2014-7-27,91.0,82.3,75.0,78.5,76.5,74.4,98,84,61,30.04,29.94,3,0,10,0.00
2014-7-28,88.6,80.7,75.3,79.5,76.8,72.5,97,88,73,30.03,29.90,5,1,13,0.00
2014-7-29,86.2,77.5,67.6,72.4,67.5,63.6,96,73,51,30.04,29.93,3,0,10,0.00
2014-7-30,83.2,73.5,63.0,65.0,62.3,58.0,91,70,50,30.05,29.95,3,0,9,0.00
2014-7-31,82.7,74.1,68.8,71.7,65.3,61.9,85,74,55,30.01,29.93,2,0,7,0.00
2014-8-1,74.1,71.6,69.9,72.2,69.2,65.6,98,92,82,29.99,29.90,1,0,5,0.27
2014-8-2,84.8,76.2,70.2,77.0,72.5,69.0,98,89,68,29.96,29.89,1,0,7,0.00
2014-8-3,89.3,79.2,73.1,76.1,72.8,70.2,96,82,56,29.98,29.87,2,0,8,0.00
2014-8-4,88.8,75.9,70.3,76.6,72.3,69.2,97,89,61,29.98,29.89,2,0,6,0.29
2014-8-5,91.8,80.2,69.4,77.3,73.1,68.8,99,81,54,30.02,29.93,3,0,7,0.00
2014-8-6,92.5,81.5,73.4,77.9,74.6,71.8,98,81,57,30.00,29.90,3,0,9,0.00
2014-8-7,91.7,81.5,73.3,78.3,75.1,72.2,98,82,58,29.97,29.84,4,0,8,0.00
2014-8-8,90.9,80.1,74.3,78.2,75.5,70.9,98,87,58,29.97,29.86,8,0,22,0.20
2014-8-9,90.8,78.7,73.0,79.0,75.1,72.0,99,90,63,29.99,29.89,9,0,15,0.45
2014-8-10,89.4,76.1,71.3,79.9,73.7,71.0,99,93,63,30.01,29.91,3,0,13,0.36
2014-8-11,88.7,75.4,71.6,79.0,73.0,69.5,99,93,67,30.00,29.87,9,0,19,0.03
2014-8-12,88.1,77.6,69.9,76.8,72.8,69.3,99,87,61,29.94,29.83,4,0,11,0.00
2014-8-13,85.0,76.9,69.2,72.4,67.8,65.2,93,75,54,29.98,29.91,4,1,10,0.00
2014-8-14,85.3,75.2,65.1,68.2,64.6,61.5,88,71,49,30.02,29.91,3,0,9,0.00
2014-8-15,87.1,76.6,67.2,69.3,66.1,63.3,92,72,49,30.01,29.90,3,0,8,0.00
2014-8-16,91.1,78.3,68.0,76.2,71.6,65.6,94,81,58,29.98,29.90,2,0,11,0.00
2014-8-17,90.2,77.8,72.9,78.3,74.0,70.8,99,89,59,29.98,29.92,4,0,12,0.12
2014-8-18,90.2,80.2,72.3,78.4,74.0,70.2,99,83,59,29.96,29.84,4,1,18,0.00
2014-8-19,92.0,82.0,75.1,78.0,75.1,71.4,99,81,54,29.95,29.84,3,0,13,0.00
2014-8-20,93.7,81.0,72.6,77.6,73.7,71.3,97,80,50,30.02,29.89,4,0,8,0.00
2014-8-21,92.5,80.5,71.2,78.4,74.2,70.3,98,83,57,30.08,30.00,3,0,9,0.00
2014-8-22,93.6,82.3,72.7,77.9,74.7,71.6,98,80,51,30.07,29.94,2,0,8,0.00
2014-8-23,93.5,83.8,75.1,77.8,75.6,73.0,95,78,55,29.99,29.85,3,0,9,0.00
2014-8-24,92.5,83.9,75.8,77.1,74.6,72.8,92,75,54,29.92,29.80,5,1,9,0.00
2014-8-25,90.2,79.9,73.5,78.0,74.5,72.9,98,84,66,29.90,29.81,4,0,11,0.45
2014-8-26,88.0,78.7,69.9,72.9,69.2,65.9,98,75,49,29.98,29.89,4,0,10,0.01
2014-8-27,91.4,80.2,70.4,74.8,70.5,66.2,91,74,50,29.99,29.89,3,0,8,0.00
2014-8-28,89.5,79.3,72.4,76.8,73.7,71.0,98,84,58,29.96,29.85,3,0,11,0.36
2014-8-29,87.7,78.8,72.8,76.0,73.5,69.3,98,85,56,29.96,29.86,2,0,11,0.00
2014-8-30,82.7,74.5,71.9,77.6,73.5,71.0,99,97,83,30.02,29.92,6,0,16,1.01
2014-8-31,89.1,78.3,71.6,79.4,74.2,71.3,100,88,58,30.04,29.96,1,0,9,0.01
2014-9-1,89.8,78.8,73.3,78.7,75.3,72.8,99,90,62,30.01,29.92,3,0,13,0.01
2014-9-2,91.1,78.6,71.7,78.5,74.3,70.9,99,88,57,30.04,29.89,4,0,10,0.49
2014-9-3,88.5,76.2,70.8,77.2,72.9,70.5,99,90,62,30.01,29.92,2,0,7,0.01
2014-9-4,91.4,78.7,69.3,76.7,72.4,68.6,99,83,57,30.03,29.94,4,0,7,0.93
2014-9-5,85.2,75.7,70.4,77.2,73.4,69.8,99,93,75,30.08,29.95,3,0,7,1.22
2014-9-6,87.8,78.1,69.7,78.8,73.9,69.4,100,88,64,30.02,29.89,3,0,8,0.01
2014-9-7,87.4,78.0,73.1,79.1,74.6,72.1,99,90,65,29.95,29.84,3,0,7,0.38
2014-9-8,89.8,78.9,72.1,79.2,74.6,71.5,99,88,64,29.96,29.87,1,0,5,0.25
2014-9-9,89.2,80.3,72.2,80.3,75.4,71.9,99,86,65,29.97,29.84,1,0,7,0.01
2014-9-10,90.1,80.8,73.5,76.8,74.4,72.7,99,82,58,29.92,29.83,2,0,8,0.00
2014-9-11,89.5,79.4,73.4,79.2,75.8,72.8,99,89,64,29.95,29.85,1,0,6,0.00
2014-9-12,90.2,79.0,72.1,77.8,73.9,71.5,99,86,59,29.99,29.88,3,0,10,0.00
2014-9-13,75.1,70.8,66.7,73.6,69.1,65.3,98,94,90,30.09,29.92,4,1,13,0.01
2014-9-14,85.2,73.9,65.9,74.2,69.1,64.4,98,86,67,30.11,30.00,3,0,8,0.00
2014-9-15,90.1,80.3,71.0,76.8,73.5,69.5,97,81,57,30.06,29.96,3,0,6,0.06
2014-9-16,89.1,78.7,71.2,76.4,73.7,70.6,98,86,57,30.03,29.89,3,0,9,0.80
2014-9-17,77.8,71.2,69.9,74.6,70.8,69.6,99,99,90,29.95,29.88,0,0,2,0.00
2014-9-18,83.4,76.9,69.3,77.3,73.9,68.2,99,91,76,29.92,29.80,1,0,5,0.48
2014-9-19,86.4,75.5,68.3,74.0,70.6,68.0,100,86,58,29.94,29.85,2,0,8,0.03
2014-9-20,86.1,76.6,68.8,72.9,69.9,67.6,98,81,55,29.98,29.88,3,0,9,0.00
2014-9-21,88.0,76.0,66.4,71.3,67.8,64.1,98,78,47,30.00,29.90,3,0,9,0.00
2014-9-22,83.4,74.8,66.3,69.2,63.8,56.4,94,71,42,30.03,29.94,6,1,14,0.00
2014-9-23,81.8,69.5,57.2,59.6,56.2,52.7,87,65,37,30.09,29.99,3,0,12,0.00
2014-9-24,82.5,70.8,61.3,66.9,62.1,57.6,90,75,55,30.13,30.04,3,0,9,0.00
2014-9-25,81.7,71.3,62.0,66.4,62.8,59.3,92,76,53,30.14,30.03,2,0,9,0.00
2014-9-26,82.2,72.7,64.0,68.9,64.7,61.7,94,77,57,30.06,29.96,2,0,9,0.00
2014-9-27,81.8,72.2,64.3,70.3,66.3,62.2,93,83,62,30.00,29.91,3,0,8,0.00
2014-9-28,79.4,73.3,69.2,74.1,70.5,67.5,98,91,82,29.97,29.87,3,0,9,0.04
2014-9-29,83.9,75.1,71.5,73.7,71.6,69.8,99,90,69,29.90,29.80,3,0,9,0.02
2014-9-30,86.0,76.5,68.2,73.4,70.4,67.0,97,82,60,29.87,29.76,2,0,5,0.00
2014-10-1,84.3,76.4,71.1,74.6,72.6,70.3,99,89,70,29.90,29.81,2,0,10,0.00
2014-10-2,87.3,78.1,74.8,77.5,75.0,70.9,98,91,66,29.93,29.81,6,0,11,0.13
2014-10-3,76.8,69.8,63.0,69.1,65.6,59.7,99,87,69,30.02,29.81,5,1,13,0.89
2014-10-4,68.1,59.3,50.7,59.7,47.2,38.1,90,67,36,30.11,29.98,6,2,12,0.00
2014-10-5,76.0,61.6,47.9,57.5,50.6,45.7,98,71,39,30.02,29.90,3,0,9,0.00
2014-10-6,80.7,69.8,60.4,69.2,64.5,57.2,98,84,61,29.98,29.85,3,0,11,0.00
2014-10-7,85.3,73.7,66.8,72.7,68.6,66.2,99,86,58,30.00,29.90,2,0,7,0.00
2014-10-8,85.9,74.8,66.0,73.5,69.1,65.4,99,84,56,30.08,29.97,2,0,7,0.00
2014-10-9,86.1,75.9,69.9,74.5,71.9,69.0,99,88,65,30.04,29.90,2,0,6,0.00
2014-10-10,86.9,78.1,72.6,75.1,72.3,69.9,99,84,58,29.99,29.89,3,0,11,0.00
2014-10-11,85.6,75.3,69.9,74.2,71.1,68.6,99,88,59,30.00,29.89,2,0,6,0.00
2014-10-12,85.4,74.7,67.4,73.7,70.4,66.8,99,88,62,29.95,29.82,4,0,13,0.00
2014-10-13,85.6,72.6,60.6,76.3,70.0,59.6,98,92,71,29.87,29.64,7,1,22,1.52
2014-10-14,70.7,61.3,53.8,59.6,53.3,48.0,97,77,46,29.96,29.76,6,1,20,0.01
2014-10-15,72.0,59.2,48.3,53.0,48.3,43.9,94,71,39,30.01,29.91,7,1,18,0.00
2014-10-16,78.2,61.2,48.5,57.8,51.8,46.9,95,75,40,29.99,29.89,3,0,8,0.00
2014-10-17,80.4,66.5,53.7,66.6,60.5,52.9,99,83,56,29.98,29.88,3,0,9,0.00
2014-10-18,81.5,70.0,60.8,68.7,63.4,55.3,99,81,63,30.02,29.91,4,1,8,0.00
2014-10-19,72.2,61.2,51.8,55.3,52.2,49.8,93,74,47,30.11,30.00,3,0,9,0.00
2014-10-20,74.9,61.8,50.7,60.5,52.5,47.4,90,73,49,30.04,29.95,2,0,6,0.00
2014-10-21,77.5,65.5,54.8,60.0,55.2,50.1,87,71,52,30.04,29.93,4,0,9,0.00
2014-10-22,76.4,64.9,56.2,58.3,53.9,50.3,92,70,42,30.08,29.99,5,1,11,0.00
2014-10-23,69.8,58.3,48.0,53.0,48.9,44.9,90,73,46,30.11,30.00,3,0,11,0.00
2014-10-24,73.3,59.9,47.7,52.9,49.0,44.8,97,71,39,30.09,30.00,4,0,9,0.00
2014-10-25,79.2,64.8,51.9,61.2,54.3,46.4,87,70,48,30.12,30.01,3,0,10,0.00
2014-10-26,83.2,68.9,57.1,65.8,60.6,54.8,94,77,52,30.04,29.92,2,0,5,0.00
2014-10-27,80.2,68.1,55.8,65.2,61.6,55.0,99,81,57,30.00,29.92,5,0,14,0.00
2014-10-28,81.8,70.7,62.8,68.7,65.2,62.2,99,84,54,30.06,29.96,2,0,7,0.00
2014-10-29,74.8,67.9,58.1,69.2,63.6,49.4,99,87,66,30.05,29.98,5,1,11,0.00
2014-10-30,72.0,59.6,50.5,49.8,45.4,40.2,82,62,32,30.10,29.98,4,1,13,0.00
2014-10-31,69.0,57.5,49.3,51.6,47.2,41.5,86,70,50,30.19,29.97,7,2,18,0.00
2014-11-1,55.9,45.8,37.2,42.0,27.7,19.1,72,51,32,30.34,30.18,6,2,14,0.00
2014-11-2,65.3,48.4,35.2,38.3,33.0,29.3,85,59,27,30.43,30.28,2,0,8,0.00
2014-11-3,70.0,55.9,40.9,52.4,42.9,32.8,92,64,37,30.36,30.23,3,0,10,0.00
2014-11-4,76.7,63.7,51.5,61.7,57.3,50.5,98,81,57,30.23,30.08,4,0,14,0.00
2014-11-5,73.5,66.4,59.9,65.8,63.2,58.8,98,90,75,30.14,30.07,1,0,7,0.02
2014-11-6,69.1,63.2,52.5,65.4,58.7,44.8,99,86,51,30.14,30.07,4,0,11,0.02
2014-11-7,60.4,50.5,41.6,44.6,36.5,31.8,83,61,35,30.20,29.99,6,2,14,0.00
2014-11-8,67.7,54.6,40.2,46.0,40.1,36.2,88,60,36,30.04,29.92,4,0,12,0.00
2014-11-9,67.1,54.0,44.2,46.0,43.9,41.5,93,71,42,30.07,29.93,5,0,15,0.00
2014-11-10,73.7,56.2,39.2,55.8,47.1,38.0,98,76,37,30.01,29.85,3,0,11,0.00
2014-11-11,78.5,65.8,54.5,64.4,59.9,51.8,97,83,57,30.00,29.87,5,1,16,0.00
2014-11-12,54.4,44.2,38.5,51.8,42.2,34.3,97,93,84,30.20,30.00,5,1,12,0.23
2014-11-13,43.0,36.6,29.8,34.2,27.6,18.2,86,70,56,30.33,30.19,7,3,20,0.00
2014-11-14,45.1,35.3,27.8,21.5,19.1,16.6,68,53,32,30.39,30.24,6,2,18,0.00
2014-11-15,54.8,43.2,28.8,43.8,28.0,21.3,77,57,34,30.32,30.10,1,0,9,0.00
2014-11-16,68.5,60.5,48.3,65.3,58.0,43.8,99,92,78,30.10,29.74,6,1,18,2.53
2014-11-17,48.1,39.2,33.0,47.1,32.0,23.9,98,77,45,30.32,29.80,9,4,23,0.20
2014-11-18,44.9,34.3,28.6,26.7,21.5,15.7,92,61,36,30.49,30.32,5,1,13,0.00
2014-11-19,57.7,41.6,25.8,38.0,28.8,23.5,93,65,29,30.41,30.23,4,0,10,0.00
2014-11-20,67.7,53.0,39.0,52.4,45.9,37.2,98,79,52,30.25,30.12,2,0,7,0.00
2014-11-21,67.8,55.3,43.3,51.7,46.9,42.2,97,75,52,30.28,30.16,5,0,15,0.00
2014-11-22,67.2,57.5,49.4,59.1,52.3,45.3,95,83,70,30.21,29.83,3,0,13,0.00
2014-11-23,71.3,63.7,60.0,62.9,60.9,59.0,99,91,70,29.83,29.50,6,1,23,0.27
2014-11-24,64.3,57.5,48.7,63.5,49.2,38.4,98,75,52,30.04,29.63,5,1,12,0.00
2014-11-25,53.2,46.8,35.5,39.8,34.4,28.0,87,63,39,30.19,30.04,4,0,12,0.00
2014-11-26,65.7,48.8,30.8,44.6,37.9,29.5,96,70,40,30.22,30.07,7,1,20,0.00
2014-11-27,54.6,47.1,37.5,42.5,34.7,32.0,81,63,43,30.42,30.21,7,1,18,0.00
2014-11-28,58.4,44.3,31.6,41.2,33.2,29.8,95,68,37,30.40,30.17,2,0,7,0.00
2014-11-29,71.8,57.2,43.0,60.4,52.8,41.1,99,87,62,30.18,30.05,4,0,16,0.00
2014-11-30,75.5,64.1,56.7,62.1,58.5,55.9,99,84,58,30.19,30.09,4,0,17,0.00
2014-12-1,75.4,64.7,58.3,64.0,60.2,57.2,99,86,60,30.29,30.18,1,0,7,0.01
2014-12-2,69.8,58.4,49.2,59.2,54.0,48.5,98,86,65,30.27,30.13,3,0,7,0.00
2014-12-3,69.5,58.4,48.9,62.9,55.6,47.5,98,91,78,30.23,30.12,0,0,5,0.00
2014-12-4,72.0,62.2,54.5,65.6,60.2,53.9,99,94,75,30.20,30.10,1,0,5,0.00
2014-12-5,76.0,68.4,64.8,68.2,65.4,63.9,98,91,74,30.16,30.06,3,0,10,0.00
2014-12-6,74.5,63.8,50.5,67.7,60.8,48.0,99,90,76,30.28,30.12,7,2,15,0.00
2014-12-7,51.4,47.2,41.7,48.1,42.8,39.4,93,85,72,30.32,30.18,6,2,14,0.00
2014-12-8,62.4,49.9,40.5,48.3,43.7,39.0,96,80,59,30.26,30.15,3,0,7,0.00
2014-12-9,63.3,50.9,39.7,46.8,41.7,38.3,96,74,41,30.26,30.15,5,1,10,0.00
2014-12-10,55.8,43.5,34.2,40.1,36.3,32.5,94,77,48,30.28,30.13,4,0,7,0.00
2014-12-11,60.6,47.7,36.0,45.5,40.1,34.2,94,76,53,30.28,30.16,2,0,7,0.00
2014-12-12,58.2,50.5,46.2,48.1,44.3,41.8,94,80,65,30.35,30.24,1,0,5,0.00
2014-12-13,67.7,56.8,48.1,53.9,49.2,44.4,94,77,58,30.28,30.13,2,0,5,0.00
2014-12-14,68.4,55.3,43.7,53.9,49.2,42.4,97,81,58,30.15,30.00,2,0,7,0.00
2014-12-15,73.8,61.6,51.0,65.5,58.5,49.3,98,90,73,30.01,29.85,3,1,18,0.50
2014-12-16,62.2,51.1,42.0,58.8,40.5,35.8,90,68,50,30.23,29.98,6,1,12,0.00
2014-12-17,57.1,46.2,35.7,44.9,40.1,33.8,94,80,61,30.28,30.13,1,0,6,0.00
2014-12-18,58.0,49.0,43.4,51.6,46.1,40.9,98,90,71,30.15,30.06,2,0,7,0.32
2014-12-19,50.3,46.3,43.4,49.8,45.5,42.4,98,97,95,30.13,30.02,2,0,12,1.68
2014-12-20,49.7,45.7,42.7,46.7,44.5,41.9,98,96,89,30.17,30.05,4,1,13,0.02
2014-12-21,57.7,48.7,40.2,52.8,46.5,39.1,98,92,81,30.13,29.89,1,0,9,0.00
2014-12-22,69.4,60.1,51.2,66.0,59.1,50.4,100,97,89,29.90,29.59,2,0,10,0.03
2014-12-23,66.3,64.3,59.8,66.0,63.8,59.4,99,99,97,29.66,29.49,1,0,7,1.69
2014-12-24,50.2,44.7,36.8,45.3,40.2,35.1,97,85,64,30.07,29.62,7,1,18,0.00
2014-12-25,55.7,42.8,31.5,41.4,36.9,30.7,99,82,51,30.23,30.06,2,0,7,0.00
2014-12-26,60.2,50.7,38.3,55.8,47.7,37.3,97,90,79,30.21,30.09,2,0,11,0.05
2014-12-27,69.0,60.9,55.0,69.0,60.5,54.4,100,99,96,30.12,29.97,2,0,8,0.99
2014-12-28,68.9,53.6,47.4,68.9,53.0,46.8,100,98,94,30.10,29.96,5,0,11,0.16
2014-12-29,51.7,48.8,46.1,51.2,48.4,45.8,99,98,97,30.15,30.01,2,0,7,0.03
2014-12-30,47.6,42.4,37.3,47.1,40.8,34.6,99,94,84,30.39,30.15,5,1,13,0.00
2014-12-31,53.7,40.8,31.5,36.2,33.2,28.9,92,76,46,30.45,30.27,6,2,12,0.00
2015-1-1,49.2,46.8,42.6,46.1,43.5,33.0,91,88,84,30.34,30.12,3,0,10,0.00
2015-1-2,65.8,57.3,49.0,65.5,56.4,45.9,100,97,88,30.14,29.96,1,0,8,0.02